Overview Statistics Trail Chart Weather Telemetry Raw packets
 

This is the latest recevied weather packets stored in our database for station/object HB9FHL-13. If no packets are shown the sender has not sent any weather packets the latest 10 day(s).

<< 53 54 55 56 57 58 59 >>
Time Temp. Humidity Pressure Rain* Wind** Luminosity Snow
1788356657 22.22° C - 1021.2 hPa 0 mm - - -
1788356357 22.78° C - 1023.7 hPa 0 mm - - -
1788356056 23.33° C - 1020.6 hPa 0 mm - - -
1788355756 22.78° C - 1023 hPa 0 mm - - -
1788355455 22.78° C - 1022.5 hPa 0 mm - - -
1788355155 23.33° C - 1022.7 hPa 0 mm - - -
1788354854 22.22° C - 1018.4 hPa 0 mm - - -
1788354554 22.22° C - 1024 hPa 0 mm - - -
1788354253 22.78° C - 1023.7 hPa 0 mm - - -
1788353953 23.33° C - 1023.7 hPa 0 mm - - -
1788353652 22.78° C - 1028.9 hPa 0 mm - - -
1788353352 22.78° C - 1024.2 hPa 0 mm - - -
1788353051 21.67° C - 1023.3 hPa 0 mm - - -
1788352751 22.78° C - 1022 hPa 0 mm - - -
1788352450 22.78° C - 1021.5 hPa 0 mm - - -
1788352150 23.33° C - 1022.8 hPa 0 mm - - -
1788351850 22.22° C - 1018.2 hPa 0 mm - - -
1788351549 22.78° C - 1025.3 hPa 0 mm - - -
1788351248 22.22° C - 1023.6 hPa 0 mm - - -
1788350948 22.22° C - 1025.2 hPa 0 mm - - -
1788350647 22.78° C - 1024.4 hPa 0 mm - - -
1788350346 22.22° C - 1022.6 hPa 0 mm - - -
1788350046 22.22° C - 1025.3 hPa 0 mm - - -
1788349745 21.11° C - 1020.4 hPa 0 mm - - -
1788349445 21.67° C - 1024.2 hPa 0 mm - - -

* Rain since midnight (hover to see other rain measurements)
** Current wind speed in m/s (hover to see current wind gust speed)